SQ8AQL-16 Weather Reports


time (UTC)temp
F
wind
direction
speed
knots
gust
knots
rain 1hr
in
rain 24hr
in
rain mn
in
humidity
%
barometer
mb
20260905222024 64 97 0.0 0.0 0.00 0.00 0.00 55 1021.2
20260905220522 64 97 0.0 0.0 0.00 0.00 0.00 55 1020.7
20260905215022 64 97 0.0 0.0 0.00 0.00 0.00 55 1020.5
20260905213520 64 97 0.0 0.0 0.00 0.00 0.00 55 1020.1
20260905212020 64 97 0.0 0.0 0.00 0.00 0.00 55 1019.9
20260905210519 64 97 0.0 0.0 0.00 0.00 0.00 55 1019.8
20260905205017 64 97 0.0 0.0 0.00 0.00 0.00 55 1019.8
20260905203516 64 97 0.0 0.0 0.00 0.00 0.00 55 1019.8
20260905202015 64 97 0.0 0.0 0.00 0.00 0.00 55 1019.7
20260905200514 64 97 0.0 0.0 0.00 0.00 0.00 55 1019.7
20260905195013 64 97 0.0 0.0 0.00 0.00 0.00 55 1019.7
20260905193512 64 97 0.0 0.0 0.00 0.00 0.00 55 1019.4
20260905192011 64 97 0.0 0.0 0.00 0.00 0.00 55 1019.4
20260905190510 64 97 0.0 0.0 0.00 0.00 0.00 55 1019.4
20260905185008 64 97 0.0 0.0 0.00 0.00 0.00 55 1019.3
20260905183507 64 97 0.0 0.0 0.00 0.00 0.00 55 1019.2
20260905182006 65 119 0.0 0.0 0.00 0.00 0.00 53 1019.1
20260905180505 69 138 0.0 0.0 0.00 0.00 0.00 46 1019.1
20260905175004 69 138 0.0 0.0 0.00 0.00 0.00 46 1019.1
20260905173503 69 138 0.0 0.0 0.00 0.00 0.00 46 1019.0
20260905172002 69 138 0.0 0.0 0.00 0.00 0.00 46 1018.9
20260905164956 70 86 0.0 0.0 0.00 0.00 0.00 44 1018.7
20260905163455 71 60 0.0 0.0 0.00 0.00 0.00 42 1018.6
20260905161954 83 126 0.0 0.0 0.00 0.00 0.00 29 1018.5
20260905160453 83 126 0.0 0.0 0.00 0.00 0.00 29 1018.4
20260905154952 83 126 0.0 0.0 0.00 0.00 0.00 29 1018.2
20260905153452 83 126 0.0 0.0 0.00 0.00 0.00 29 1018.0
20260905151950 83 126 0.0 0.0 0.00 0.00 0.00 29 1018.0
20260905150449 83 126 0.0 0.0 0.00 0.00 0.00 29 1017.9
20260905144948 83 126 0.0 0.0 0.00 0.00 0.00 29 1017.9
20260905143447 73 224 0.0 0.0 0.00 0.00 0.00 49 1017.8
20260905141946 73 224 0.0 0.0 0.00 0.00 0.00 49 1017.8
20260905140445 73 224 0.0 0.0 0.00 0.00 0.00 49 1017.7
20260905134943 73 224 0.0 0.0 0.00 0.00 0.00 49 1017.8
20260905133443 73 224 0.0 0.0 0.00 0.00 0.00 49 1017.7
20260905131941 73 224 0.0 0.0 0.00 0.00 0.00 49 1017.7
20260905130440 73 224 0.0 0.0 0.00 0.00 0.00 49 1017.7
20260905124938 73 224 0.0 0.0 0.00 0.00 0.00 49 1017.7
20260905123437 73 224 0.0 0.0 0.00 0.00 0.00 49 1017.7
20260905121936 73 224 0.0 0.0 0.00 0.00 0.00 49 1017.9
20260905120434 73 224 0.0 0.0 0.00 0.00 0.00 49 1018.0
20260905114934 73 224 0.0 0.0 0.00 0.00 0.00 49 1018.1
20260905113433 73 224 0.0 0.0 0.00 0.00 0.00 49 1018.2
20260905111932 73 224 0.0 0.0 0.00 0.00 0.00 49 1018.2
20260905110430 73 224 0.9 0.9 0.00 0.00 0.00 49 1018.3
20260905104929 73 36 0.0 0.0 0.00 0.00 0.00 48 1018.3
20260905103429 73 36 0.0 0.0 0.00 0.00 0.00 48 1018.3
20260905101928 73 36 0.0 0.0 0.00 0.00 0.00 48 1018.1
20260905100427 73 36 0.0 0.0 0.00 0.00 0.00 48 1018.0
20260905094926 65 133 0.0 0.0 0.00 0.00 0.00 67 1018.0
20260905093425 65 133 0.0 0.0 0.00 0.00 0.00 67 1018.0
20260905091924 65 133 0.0 0.0 0.00 0.00 0.00 67 1017.8
20260905090423 65 133 0.0 0.0 0.00 0.00 0.00 67 1018.0
20260905084922 65 133 0.0 0.0 0.00 0.00 0.00 67 1018.0
20260905083420 65 133 0.0 0.9 0.00 0.00 0.00 67 1018.1
20260905081920 64 114 0.0 0.0 0.00 0.00 0.00 73 1018.0
20260905080419 64 114 0.0 0.0 0.00 0.00 0.00 73 1017.8
20260905074918 64 114 0.0 0.0 0.00 0.00 0.00 73 1017.6
20260905073417 64 114 0.0 0.0 0.00 0.00 0.00 73 1017.6
20260905071916 64 114 0.0 0.0 0.00 0.00 0.00 73 1017.2
20260905070415 64 114 0.0 0.0 0.00 0.00 0.00 73 1017.0
20260905064913 64 114 0.0 0.0 0.00 0.00 0.00 73 1017.0
20260905063412 64 114 0.0 0.0 0.00 0.00 0.00 73 1017.0
20260905061912 64 114 0.0 0.0 0.00 0.00 0.00 73 1016.6
20260905060411 64 114 0.0 0.0 0.00 0.00 0.00 73 1016.4
20260905053404 64 108 0.0 0.0 0.00 0.00 0.00 74 1015.8
20260905051903 64 145 0.0 0.0 0.00 0.00 0.00 68 1016.1
20260905050402 64 145 0.0 0.0 0.00 0.00 0.00 68 1015.7
20260905044901 64 145 0.0 0.0 0.00 0.00 0.00 68 1015.6
20260905040349 64 145 0.0 0.0 0.00 0.00 0.00 68 1014.9
20260905033342 64 145 0.0 0.0 0.00 0.00 0.00 68 1014.6
20260905031841 66 60 0.0 0.0 0.00 0.00 0.00 63 1014.8
20260905030339 66 60 0.0 0.0 0.00 0.00 0.00 63 1014.7
20260905024837 69 91 0.0 0.0 0.00 0.00 0.00 63 1014.6
20260905023336 69 91 0.0 0.0 0.00 0.00 0.00 63 1015.1
20260905021835 69 91 0.0 0.0 0.00 0.00 0.00 63 1015.0
20260905020335 69 91 0.0 0.0 0.00 0.00 0.00 63 1014.8
20260905014833 69 91 0.0 0.0 0.00 0.00 0.00 63 1014.3
20260905013332 69 91 0.0 0.0 0.00 0.00 0.00 63 1013.8
20260905011831 69 91 0.0 0.0 0.00 0.00 0.00 63 1013.8
20260905010329 69 91 0.0 0.0 0.00 0.00 0.00 63 1013.4
20260905004828 71 332 0.0 0.0 0.00 0.00 0.00 58 1012.9
20260905003326 71 332 0.0 0.0 0.00 0.00 0.00 58 1012.3
20260905001825 71 332 0.0 0.0 0.00 0.00 0.00 58 1011.9
20260905000325 71 332 0.0 0.0 0.00 0.00 0.00 58 1011.6
20260904234822 71 332 0.0 0.0 0.00 0.00 0.00 58 1011.4
20260904231816 71 332 0.0 0.0 0.00 0.00 0.00 58 1011.3
20260904230315 71 332 0.0 0.0 0.00 0.00 0.00 58 1011.6
20260904224813 71 332 0.0 0.0 0.00 0.00 0.00 58 1010.2